[[{"header":{"parameterUnit":"m.s-1","parameterCategory":1,"la1":30.2991,"la2":30.254,"lo1":-89.0895,"lo2":-89.0444,"dy":0.0017,"dx":0.0017,"nx":28,"ny":28,"refTime":"2023-03-17T21:00:00:Z","depth":0,"parameterNumber":2,"parameterNumberName":"U-component_of_WINDS"},"data":[0,0,0,0,0,0,0,0,0,0,0,0,0,0,0,0,0,0,0,0,0,0,0,0,0,0,0,0,0,0,0,0,0,0,0,0,0,0,0,0,0,0,0,0,0,0,0,0,0,0,0,0,0,0,0,0,0,0,0.8484,0.8484,0,0.8469,0.8469,0.8469,0.8457,0.8457,0.8457,0.8456,0.844,0.8439,0.8439,0,0,0,0,0,0,0,0,0,0,0,0,0,0.8503,0.8503,0.8484,0.8484,0.8484,0.8469,0.8469,0.8469,0.8457,0.8457,0.8457,0.8456,0.844,0.8439,0.8439,0,0,0,0,0,0,0,0,0,0,0,0,0,0.8492,0.8503,0.8484,0.8476,0.8475,0.8469,0.8469,0.8468,0.8457,0.8457,0.8457,0.8456,0.844,0.8439,0.8439,0.8439,0,0,0.8437,0.8437,0,0,0,0,0,0,0,0,0.8493,0.8492,0.8478,0.8477,0.8476,0.8465,0.8469,0.8458,0.8457,0.8464,0.8456,0.8456,0.8448,0.8447,0.8444,0.8438,0.8437,0.8437,0.8437,0.8437,0.8437,0,0,0,0,0,0,0,0.8494,0.8492,0.8478,0.8477,0.8476,0.8473,0.8472,0.8467,0.8457,0.8463,0.8462,0.8461,0.8447,0.8445,0.8444,0.8437,0.8437,0.8437,0.8436,0.8436,0.8431,0.8432,0,0,0,0,0,0,0.8496,0.8493,0.8479,0.8478,0.8484,0.8473,0.8471,0.8468,0.8457,0.8455,0.8461,0.846,0.8446,0.8444,0.8443,0.8443,0.8437,0.8436,0.8436,0.8431,0.8431,0.8432,0,0,0,0,0,0,0.8496,0.8495,0.8479,0.8485,0.8483,0.8473,0.847,0.8468,0.8465,0.8455,0.8453,0.846,0.8446,0.8444,0.844,0.8442,0.8436,0.8435,0.8431,0.8431,0.8431,0.8442,0,0,0,0,0,0,0.8497,0.8495,0.8495,0.8485,0.8483,0.8477,0.847,0.8468,0.8465,0.8464,0.8454,0.8452,0.8445,0.8441,0.844,0.8441,0.8435,0.8431,0.8431,0.8431,0.8442,0.8443,0.8444,0,0,0,0,0,0.8498,0.8498,0.8495,0.8493,0.8482,0.8477,0.8475,0.8468,0.8465,0.8465,0.8458,0.8452,0.8442,0.8441,0.8439,0.8441,0.8431,0.8431,0.8431,0.8441,0.8443,0.8444,0,0,0,0,0,0,0.8507,0.8496,0.8493,0.849,0.8485,0.8475,0.8474,0.8469,0.8464,0.8464,0.8454,0.8452,0.845,0.8445,0.8443,0.8441,0.8436,0.8436,0.8444,0.8445,0.8446,0.8447,0.8435,0,0,0,0,0,0.8509,0.8506,0.8496,0.8495,0.8492,0.8484,0.8481,0.8476,0.847,0.8467,0.8461,0.8455,0.845,0.8447,0.8443,0.8441,0.8439,0.8441,0.8443,0.8444,0.8444,0.8443,0.8444,0.8433,0.8433,0.8433,0,0,0.8512,0.8506,0.8504,0.8497,0.8492,0.8489,0.8482,0.8479,0.8476,0.8467,0.8463,0.8458,0.8451,0.8449,0.8447,0.8445,0.8447,0.8444,0.8445,0.8444,0.8444,0.8445,0.8446,0.8433,0.8433,0.8433,0,0,0.8517,0.8512,0.8511,0.8506,0.85,0.8494,0.8494,0.8485,0.8482,0.8479,0.8472,0.8469,0.8461,0.8457,0.8453,0.8458,0.8453,0.8457,0.8462,0.8462,0.8463,0.8464,0.8466,0.8467,0.8457,0.8457,0.8457,0,0.8522,0.8517,0.851,0.8508,0.8505,0.8497,0.8496,0.8492,0.8484,0.8482,0.8479,0.847,0.8465,0.8462,0.8463,0.8461,0.846,0.8458,0.8464,0.8464,0.8465,0.8467,0.8468,0.8458,0.8458,0.8458,0.8458,0,0.8524,0.8521,0.8521,0.8514,0.8511,0.8509,0.8502,0.85,0.8496,0.8491,0.8488,0.8481,0.8475,0.8474,0.847,0.8471,0.847,0.8465,0.846,0.8467,0.8468,0.8469,0.8459,0.8458,0.8458,0.8458,0,0,0.8533,0.8524,0.8524,0.8521,0.8514,0.8511,0.8509,0.8504,0.8503,0.8498,0.8496,0.8491,0.8488,0.8484,0.8479,0.8479,0.8484,0.8474,0.8474,0.8477,0.8485,0.8489,0.849,0.848,0.848,0.8481,0.8486,0,0.8537,0.8534,0.8528,0.8526,0.8524,0.8517,0.8516,0.8511,0.8507,0.8504,0.8499,0.8496,0.8491,0.8489,0.8489,0.8483,0.8485,0.8483,0.8479,0.8479,0.848,0.849,0.8493,0.8499,0.8487,0.8487,0.8487,0,0.8541,0.8537,0.8535,0.8529,0.8528,0.8527,0.8522,0.852,0.8515,0.8512,0.8509,0.8503,0.8501,0.8497,0.8495,0.8493,0.8491,0.8489,0.8489,0.8488,0.8483,0.849,0.85,0.8501,0.8488,0.8488,0.8488,0,0.8548,0.8543,0.8541,0.8539,0.8532,0.8531,0.8528,0.8523,0.8521,0.8517,0.8516,0.8512,0.8509,0.8506,0.85,0.8498,0.8499,0.8494,0.8496,0.8496,0.8496,0.8496,0.8507,0.8495,0.8495,0.8495,0.8495,0,0.8553,0.8552,0.8544,0.8543,0.8543,0.8536,0.8536,0.8532,0.8528,0.8526,0.852,0.8519,0.8511,0.8509,0.8505,0.8503,0.8502,0.85,0.8499,0.85,0.8501,0.8499,0.8498,0.8495,0.8495,0.8495,0.8495,0,0.856,0.8555,0.8553,0.8547,0.8545,0.8545,0.854,0.8539,0.8535,0.8533,0.8532,0.8526,0.8523,0.8517,0.8513,0.851,0.851,0.8507,0.8511,0.8511,0.8513,0.8513,0.8523,0.8524,0.8512,0.8512,0.8512,0,0.8563,0.8563,0.8557,0.8556,0.8553,0.8551,0.8549,0.8543,0.8542,0.8537,0.8537,0.8534,0.8531,0.8527,0.8522,0.8519,0.8516,0.852,0.8515,0.8518,0.8516,0.8516,0.8517,0.8521,0.8521,0.8521,0.8521,0,0.8569,0.8567,0.8565,0.8562,0.856,0.8558,0.8555,0.8554,0.8548,0.8546,0.8544,0.8542,0.8538,0.8535,0.8531,0.8528,0.8524,0.8523,0.8523,0.8524,0.8527,0.8526,0.8514,0.8522,0.8522,0.8522,0.8522,0.8522,0.8575,0.8574,0.8571,0.8569,0.8566,0.8564,0.8563,0.8559,0.8557,0.8554,0.8551,0.8549,0.8545,0.854,0.8537,0.8535,0.8533,0.8534,0.8534,0.8534,0.8535,0.8528,0.8535,0.8535,0.8535,0.8535,0.8535,0,0.8581,0.8579,0.8577,0.8573,0.8572,0.8569,0.8566,0.8565,0.8563,0.856,0.8558,0.8556,0.8553,0.8549,0.8546,0.8546,0.8544,0.8545,0.8545,0.8544,0.8537,0.8537,0.8547,0.8547,0.8547,0.8547,0.8547,0.8547,0.8584,0.8583,0.8581,0.8579,0.8577,0.8575,0.8574,0.8572,0.857,0.8568,0.8566,0.8563,0.856,0.8557,0.8555,0.8554,0.8553,0.8555,0.8553,0.8546,0.8545,0.8544,0.8544,0.8555,0.8555,0.8561,0.8561,0.8561]},{"header":{"parameterUnit":"m.s-1","parameterCategory":1,"la1":30.2991,"la2":30.254,"lo1":-89.0895,"lo2":-89.0444,"dy":0.0017,"dx":0.0017,"nx":28,"ny":28,"refTime":"2023-03-17T21:00:00:Z","depth":0,"parameterNumber":3,"parameterNumberName":"V-component_of_WINDS"},"data":[0,0,0,0,0,0,0,0,0,0,0,0,0,0,0,0,0,0,0,0,0,0,0,0,0,0,0,0,0,0,0,0,0,0,0,0,0,0,0,0,0,0,0,0,0,0,0,0,0,0,0,0,0,0,0,0,0,0,-6.2553,-6.2553,0,-6.2622,-6.2622,-6.2623,-6.2594,-6.2592,-6.259,-6.2589,-6.2654,-6.2657,-6.266,0,0,0,0,0,0,0,0,0,0,0,0,0,-6.2391,-6.2395,-6.2552,-6.2553,-6.2554,-6.2621,-6.2622,-6.2623,-6.2594,-6.2592,-6.259,-6.2588,-6.2653,-6.2657,-6.2661,0,0,0,0,0,0,0,0,0,0,0,0,0,-6.2461,-6.2396,-6.2552,-6.2548,-6.2548,-6.2621,-6.2622,-6.2624,-6.2594,-6.2592,-6.259,-6.2587,-6.2652,-6.2656,-6.2661,-6.2741,0,0,-6.2676,-6.2678,0,0,0,0,0,0,0,0,-6.2457,-6.2467,-6.2548,-6.2548,-6.2549,-6.2597,-6.2589,-6.2663,-6.2595,-6.2577,-6.2589,-6.2586,-6.2637,-6.2643,-6.2661,-6.2744,-6.2747,-6.2677,-6.268,-6.2682,-6.2683,0,0,0,0,0,0,0,-6.2452,-6.2464,-6.258,-6.2549,-6.255,-6.2541,-6.2548,-6.2603,-6.2619,-6.2578,-6.2576,-6.2585,-6.2636,-6.2656,-6.2662,-6.2748,-6.2677,-6.2681,-6.2684,-6.2686,-6.2902,-6.2904,0,0,0,0,0,0,-6.2448,-6.246,-6.2577,-6.2582,-6.2496,-6.2546,-6.2554,-6.2584,-6.2619,-6.2622,-6.2587,-6.2583,-6.2649,-6.2656,-6.2664,-6.2761,-6.2682,-6.2686,-6.2689,-6.2899,-6.2902,-6.2905,0,0,0,0,0,0,-6.2445,-6.2459,-6.2575,-6.252,-6.2534,-6.2552,-6.2585,-6.2586,-6.2606,-6.2626,-6.2628,-6.2605,-6.2647,-6.2657,-6.2723,-6.2763,-6.2689,-6.2693,-6.2896,-6.29,-6.2904,-6.2954,0,0,0,0,0,0,-6.244,-6.2458,-6.2489,-6.2521,-6.2538,-6.2633,-6.2587,-6.2589,-6.2615,-6.2611,-6.2643,-6.2645,-6.2646,-6.2716,-6.2728,-6.2768,-6.2697,-6.2892,-6.2898,-6.2902,-6.2949,-6.296,-6.2969,0,0,0,0,0,-6.2434,-6.2499,-6.2491,-6.2505,-6.2577,-6.2636,-6.2645,-6.2646,-6.2619,-6.265,-6.2663,-6.2644,-6.2757,-6.2723,-6.2736,-6.2778,-6.289,-6.2896,-6.2902,-6.2945,-6.2958,-6.2969,0,0,0,0,0,0,-6.2468,-6.2503,-6.2494,-6.2571,-6.2601,-6.2631,-6.267,-6.2659,-6.2696,-6.269,-6.2688,-6.2696,-6.2764,-6.2777,-6.2739,-6.2858,-6.2819,-6.2828,-6.2847,-6.2859,-6.2869,-6.2864,-6.2701,0,0,0,0,0,-6.2485,-6.2531,-6.2558,-6.2624,-6.2639,-6.2652,-6.2678,-6.2677,-6.2706,-6.2718,-6.2736,-6.2764,-6.2806,-6.2833,-6.2873,-6.2951,-6.2958,-6.2987,-6.2997,-6.3005,-6.3013,-6.3056,-6.307,-6.2926,-6.2926,-6.2926,0,0,-6.2519,-6.2544,-6.2572,-6.2631,-6.2654,-6.2701,-6.2663,-6.2713,-6.2748,-6.2725,-6.2789,-6.2803,-6.2835,-6.2908,-6.2941,-6.2921,-6.3054,-6.3013,-6.3019,-6.3022,-6.3064,-6.3078,-6.309,-6.293,-6.2929,-6.2929,0,0,-6.2605,-6.2629,-6.2687,-6.2711,-6.2748,-6.2756,-6.277,-6.2803,-6.2812,-6.2876,-6.2861,-6.2901,-6.2973,-6.2997,-6.3018,-6.3117,-6.3101,-6.3129,-6.318,-6.3223,-6.3234,-6.3244,-6.3279,-6.3292,-6.3137,-6.3137,-6.3137,0,-6.2642,-6.2714,-6.2717,-6.277,-6.2797,-6.2781,-6.2839,-6.2862,-6.2909,-6.2927,-6.2905,-6.2996,-6.3016,-6.3095,-6.312,-6.3137,-6.3153,-6.3125,-6.3232,-6.3242,-6.3252,-6.3285,-6.3299,-6.314,-6.314,-6.314,-6.3139,0,-6.2759,-6.2809,-6.2851,-6.2899,-6.293,-6.2985,-6.2996,-6.3027,-6.3023,-6.3034,-6.31,-6.3124,-6.3169,-6.3188,-6.3184,-6.3267,-6.3254,-6.3232,-6.3192,-6.3269,-6.33,-6.3313,-6.3145,-6.3144,-6.3143,-6.3142,0,0,-6.2866,-6.2918,-6.2933,-6.2956,-6.2996,-6.3034,-6.3088,-6.3135,-6.3161,-6.3194,-6.324,-6.3302,-6.3284,-6.3308,-6.3307,-6.3344,-6.3422,-6.3318,-6.3319,-6.3337,-6.3515,-6.3531,-6.3545,-6.3412,-6.3415,-6.3417,-6.3512,0,-6.2955,-6.3054,-6.3059,-6.3147,-6.3194,-6.3181,-6.3229,-6.3258,-6.327,-6.331,-6.3323,-6.3368,-6.3339,-6.3354,-6.3391,-6.3405,-6.3457,-6.3398,-6.3454,-6.3456,-6.3446,-6.3562,-6.3578,-6.3667,-6.3525,-6.3527,-6.3528,0,-6.3073,-6.3113,-6.3207,-6.3243,-6.3262,-6.3305,-6.3349,-6.3388,-6.3421,-6.3427,-6.3456,-6.345,-6.3505,-6.3465,-6.3541,-6.35,-6.3523,-6.3534,-6.3537,-6.3542,-6.3496,-6.3569,-6.3695,-6.3709,-6.3548,-6.3546,-6.3545,0,-6.3142,-6.3219,-6.3286,-6.3305,-6.3348,-6.3379,-6.3398,-6.3429,-6.3457,-6.3495,-6.3513,-6.3556,-6.3579,-6.3612,-6.3617,-6.3587,-6.3694,-6.3653,-6.37,-6.37,-6.3722,-6.372,-6.3853,-6.3738,-6.3737,-6.3737,-6.3737,0,-6.3241,-6.3299,-6.3318,-6.3359,-6.3424,-6.3429,-6.3492,-6.3509,-6.3537,-6.358,-6.3571,-6.3612,-6.3617,-6.3658,-6.3663,-6.3725,-6.3736,-6.3741,-6.3742,-6.3742,-6.3742,-6.3757,-6.3751,-6.3741,-6.374,-6.3739,-6.3739,0,-6.3329,-6.3344,-6.3416,-6.3452,-6.3463,-6.3509,-6.3539,-6.3578,-6.359,-6.3645,-6.3658,-6.3676,-6.3725,-6.3734,-6.3791,-6.3794,-6.3869,-6.3863,-6.3858,-6.3857,-6.3903,-6.3899,-6.405,-6.407,-6.3942,-6.3943,-6.3944,0,-6.3391,-6.3436,-6.3478,-6.3508,-6.3529,-6.3576,-6.3606,-6.3613,-6.3644,-6.3687,-6.372,-6.3769,-6.3808,-6.3886,-6.3903,-6.3947,-6.3942,-6.3992,-6.3948,-6.3948,-6.3943,-6.394,-6.3944,-6.4,-6.4001,-6.4002,-6.4003,0,-6.35,-6.3506,-6.355,-6.3597,-6.3634,-6.3671,-6.3706,-6.373,-6.3742,-6.3777,-6.3828,-6.3859,-6.3919,-6.3966,-6.4011,-6.4028,-6.4018,-6.4018,-6.403,-6.4031,-6.4026,-6.403,-6.3881,-6.4014,-6.4012,-6.4012,-6.4011,-6.4011,-6.3576,-6.3616,-6.3653,-6.3703,-6.3731,-6.3765,-6.3804,-6.3822,-6.3866,-6.3916,-6.3918,-6.3974,-6.4007,-6.4065,-6.4087,-6.4129,-6.4113,-6.4132,-6.4137,-6.4141,-6.4146,-6.4021,-6.4137,-6.4137,-6.4137,-6.4137,-6.4136,0,-6.3685,-6.3709,-6.3755,-6.3806,-6.3845,-6.3835,-6.3874,-6.3907,-6.3957,-6.399,-6.403,-6.4089,-6.4136,-6.4158,-6.4205,-6.4235,-6.4231,-6.4246,-6.4244,-6.4248,-6.4157,-6.4142,-6.4249,-6.4249,-6.4249,-6.4249,-6.4249,-6.4249,-6.3746,-6.3814,-6.3824,-6.3906,-6.3928,-6.3985,-6.4009,-6.4039,-6.4066,-6.4133,-6.4174,-6.4189,-6.4217,-6.4266,-6.4309,-6.4314,-6.4331,-6.4349,-6.4352,-6.4266,-6.4255,-6.4244,-6.4229,-6.4353,-6.4353,-6.4439,-6.444,-6.4441]}]]